Find Starlink 32489

NORAD ID: 61893 Int'l Des: 2024-204 Owner: SPXS Country: US Constellation: starlink operational
LEOCIRCULAR

リアルタイム位置

3D地球を読み込み中...

Starlink 32489について

説明を読み込み中...

次回通過

Passes for default location (London). Set your location on the main map for personalized predictions.

高度履歴

Loading altitude history...

軌道要素

1 61893U 24204V 26121.16670139 .00062790 00000-0 18572-2 0 9993
2 61893 53.1606 243.0077 0001052 88.1400 16.7850 15.34345383 5867
Epoch: May 1, 2026 • Age: 6 hours

現在のステータス

高度 464.8 km
速度 7.64 km/s
衛星直下点 34.70°N, 96.37°W
打ち上げ日 Nov 9, 2024
運用期間 1.4 years
タイプ internet

技術仕様

分類 Payload
質量 730.00 kg
乾燥質量 700.00 kg
総質量 730.00 kg
長さ 0.30 m
直径 4.10 m
スパン 29.00 m
形状 Box + pan
製造者 SPXS
バスタイプ Starlink V2M
フェーズステータス In Orbit
所有者/国 SPXS/US

Most Searched